map of KCNI home
Great Circle Mapper logo
KCNI - Airport
Location
City:  Canton, Georgia, United States
Name:Cherokee County Airport
ICAO:KCNI
FAA LID:CNI

Details
Type:Airport (Airfield)
Use:Public/Civil
Latitude:3418'44"N (34.312217)
Longitude:8425'20"W (-84.422155)
Datum:WGS 1984
Elevation:1219 ft (372 m)
Variation:5.04W (WMM2015 magnetic declination)
-0.08 annual change
Runways:1
Longest:5001 × 75 ft (1524 × 23 m), paved

Time
Time Zone:UTC-5 (DST-4)
Local Time:

Weather
METAR:KCNI 081135Z AUTO 22004KT 10SM SCT120 02/M07 A2984 RMK AO2

Related Locations
Nearby:
Farthest:MQZ: 11326 mi / 18228 km
Margaret River [Margaret River Airport], WA, AU

Find:

   beyond  
but within

Other Information
Maps:
NOTAMs:
Links:
Sources:

  
flag of United States
flag of Georgia
  

Sectional Chart

Flight Planning
at skyvector.com

Satellite Image

Google Maps Satellite view

 

Copyright © 2004-2016 Karl L. Swartz. All rights reserved.
The Great Circle Mapper name and logo are trademarks of the Great Circle Mapper.
All other trademarks mentioned herein belong to their respective owners.
Please see credits for attibutions and further copyright information.

  Follow gcmap on Facebook Follow gcmap on Twitter Follow gcmap on Google+ GCmap on LinkedIn

hCard Microformat

Geo Microformat